User: anonymous   Login
Location: Livorno
(43.5500°N, 10.3170°E)
Time: 18:43:17
(UTC+01:00)
Language:

Envisat - Orbit

View from above orbital plane
View from above orbital plane
View from above satellite
View from above satellite

Ground track
Ground track

The orbit data is extracted from the following two-line orbital elements,

1 27386U 02009A   20340.03971198  .00000042  00000-0  27211-4 0  9997
2 27386  98.1401 338.1448 0001324  89.5580 336.9980 14.38002834983132
Epoch (UTC): 05 December 2020 00:57:11
Eccentricity: 0.0001324
inclination: 98.1401°
perigee height: 764 km
apogee height: 766 km
right ascension of ascending node: 338.1448°
argument of perigee: 89.5580°
revolutions per day: 14.38002834
mean anomaly at epoch: 336.9980°
orbit number at epoch: 98313

The dashed part of the orbit path shows where the satellite is in the earth's shadow,  

DLR